Погода в Даниловке

Погода в Даниловке : погода сейчас, прогноз погоды и архив. Всё, что Вы хотите узнать о погоде в Даниловке!

Хотите узнать прогноз погоды в Даниловке? Тогда Вам сюда: Погода в Даниловке

Поиск расширенной информации на нашем сайте:

Другие новости

Новости СМИ2

Главная страница сайта

Новости сайта

03.07.2017

Напоминаем, что на нашем специализированном сайте Метеоцентр.Азия вы можете получить высокодетализированные автоматические прогнозы погоды по пунктам России, СНГ и мира в авиационном формате (включающие направление и скорость ветра, видимость, явления погоды, количество и форму облачности, нижнюю и верхнюю границу облачности).


Погода в Даниловке - сегодня

Время (UTC), дата Ветер
(°,м/с) 
Видим.   Явления Облачность Т
(°С)
Тd
(°С)
f(%) Тe
(°С)
Pmin
(гПа)
dP
(гПа)
Po
(мм)
O2
(г/м3)
Тmin Tmax R s Состояние
почвы
18 17.11.17 090 (В) 20000 м    10/0 верхняя 
[Cs]
-3.1 -5.1 86 -3  1029  0.5  762  311           
21 17.11.17 тихо ()   20000 м    ясно 
-4.9 -7 85 -5  1029.3  0.1  762  313           
00 18.11.17 тихо ()   0500 м  туман  ясно 
-6.3 -7.1 94 -6  1028.9  -0.4  762  315           
03 18.11.17 тихо ()   0500 м  туман  ?/?  
-7.1 -7.9 94 -7  1028.8  -0.1  762  316  -7.7         
06 18.11.17 тихо ()   2000 м  дымка{туман}  10/0 верхняя 
[Cs]
-6.1 -6.8 95 -6  1028.6  -0.2  762  315           
09 18.11.17 240 (ЮЗ) 20000 м    10/3 600 м верхняя 
[Sc|Cs]
+2.4 +0 84 +3  1027.8  -0.4  761  304           
12 18.11.17 210 (ЮЗ) 20000 м    10/10 600 м 
[Sc]
+3.6 -1.1 71 +3  1026.2  -1.6  760  302           
15 18.11.17 140 (ЮВ) 20000 м    10/10 600 м 
[Sc]
+1.6 -0.9 83 +1  1025.6  -0.7  760  304    +3.8       
18 18.11.17 140 (ЮВ) 20000 м    10/10 600 м 
[Sc]
-0.6 -2.1 90 -1  1024.8  -0.8  759  307           
21 18.11.17 070 (В) 20000 м    10/10 600 м 
[Sc]
-0.7 -2.2 90 1023.7  -1.1  758  307           
00 19.11.17 120 (ЮВ) 10 км  слаб. дождь  10/10 300 м 
[Frnb|Ns]
+1.6 -0.6 85 +1  1022.1  -1.5  757  303           
03 19.11.17 130 (ЮВ) 2000 м  слаб. морось{дождь}  10/10 300 м 
[St]
+1.6 +0.8 94 1010.7  -1.4  756  303  -1.8    0.1     
06 19.11.17 150 (ЮВ) 2000 м  слаб. морось{дождь}  10/10 300 м 
[St]
+1.7 +1.2 96 1020.1  -0.5  756  302  +1         
09 19.11.17 150 (ЮВ) 2000 м  дымка{морось}  10/10 300 м 
[St]
+2.8 +2 94 +1  1018.5  -1.5  754  301           
12 19.11.17 130 (ЮВ) 2000 м  в посл. час морось  10/10 300 м 
[St]
+3.7 +3.2 97 +2  1017.1  -1.4  753  299           
15 19.11.17 140 (ЮВ) 2000 м  слаб. морось  10/10 300 м 
[St]
+4 +3.3 95 +2  1016.2  -0.9  753  298    +5  0.0     
18 19.11.17 320 (СЗ) 4000 м  слаб. морось  10/10 300 м 
[St]
+5.3 +3.4 88 +4  1015.6  -0.5  752  297           
21 19.11.17 140 (ЮВ) 2000 м  слаб. морось  10/10 300 м 
[St]
+5.7 +5.2 97 +7  1015.5  752  296           
00 20.11.17 140 (ЮВ) 2000 м  слаб. морось  10/10 300 м 
[St]
+6 +5.5 97 +6  1015.1  -0.5  752  296           
03 20.11.17 150 (ЮВ) 2000 м  слаб. морось  10/10 300 м 
[St]
+6.1 +5.6 97 +6  1014.3  -0.8  751  295  +3.7    0.2     
06 20.11.17 150 (ЮВ) 2000 м  слаб. морось  10/10 300 м 
[St]
+6.3 +6.1 99 +5  1015  0.7  752  295           
09 20.11.17 140 (ЮВ) 2000 м  дымка{морось}  10/10 600 м 
[Sc]
+6.7 +6.5 99 +6  1014.2  -0.7  751  294           
12 20.11.17 160 (Ю) 2000 м  дымка{морось}  10/10 300 м 
[Sc]
+6.8 +6.6 99 +7  1012.9  -1.3  750  294           
15 20.11.17 330 (СЗ) 2000 м  дымка  10/10 300 м 
[St]
+6.8 +6.1 95 +5  1012.2  -0.7  750  294    +7.2  0.2     
18 20.11.17 150 (ЮВ) 20000 м    10/10 600 м 
[Sc]
+5.7 +4.1 89 +4  1011.2  -1  749  295           
Время (UTC), дата Ветер
(°,м/с) 
Видим.   Явления Облачность Т
(°С)
Тd
(°С)
f(%) Тe
(°С)
Pmin
(гПа)
dP
(гПа)
Po
(мм)
O2
(г/м3)
Тmin Tmax R s Состояние
почвы

Для получения пояснительной информации подведите курсор к названию столбца.

ПОГОДА в Даниловке - архив

Всё, что Вы хотите узнать о погоде в Даниловке - удобно и подробно!

Выберите нужную дату (начиная с 1 января 2015* года) и нажмите кнопку "Найти".
Будут отображены архивные сводки погоды по пункту Даниловка, начиная с указанной даты.


Отображать данные в формате CSV (для использования в таблицах Excel)


Внимание! Наш архив погоды предназначен исключительно для личного некоммерческого использования в познавательных целях. Если Вам необходимы официальные справки о состоянии погоды (для производственных, юридических, коммерческих и т.п. целей), обращайтесь в органы Росгидромета.

*Примечание: данная дата относится к архиву по метеостанциям СССР (Россия, СНГ, Балтия).
Архив по метеостанциям Зарубежной Европы и Азии (кроме Китая) хранится 10 дней, по другим регионам земного шара (Китай, Африка, Америка, Австралия, Океания) - 1 день.

Даниловка - район местоположения метеостанции


Название, широта, долгота, высота метеостанции:
Даниловка 50.4°ш. 44.1°д. 102 м над ур. моря [Российская Федерация]

Дополнительная информация

В oтличие oт бoльшинства пoгoдных сайтoв мы публикуем пoдрoбную метеoинфoрмацию в детальнoм прoфессиoнальнoм фoрмате.

Характеристики температуры и влажнoсти вoздуха измеряются на высoте 2 м в тени вдали oт зданий и деревьев.
Скoрoсть ветра измеряется на высoте 10 м (на урoвне рoста челoвека скoрoсть ветра ниже в 1.5-2 раза). Если метеoстанция нахoдится в гoрoде или в лесу, тo скoрoсть ветра занижена на 2-4 м/с пo сравнению с oткрытым местoм. Скoрoсть ветра над акватoриями крупных рек и oзёр, а также на вершинах хoлмoв на 2-5 м/с выше, чем в oбычных услoвиях.
Атмoсфернoе давление в разных тoчках местнoсти мoжет значительнo oтличаться oт давления на метеoстанции, в зависимoсти oт услoвий рельефа (при пoдъёме на 10 м давление пoнижается примернo на 1 мм рт.ст.).